Torna al catalogo

HULIANWANG DIGUI-157

AttivoComunicazioniLEO
NORAD 68131·PAYLOAD·🇨🇳 China

Lanciato Mar 12, 2026 da Wenchang Space Launch Site

Loading…

Prossimi Passaggi (prossime 24 ore)

TLE

AggiornatoSource: Space-Track

Epoca: Sep 14, 2026, 14:25 UTC

1 68131U 26047C   26257.60085576 -.00000094  00000-0  64192-4 0  9997
2 68131  49.9993  95.5076 0001200  68.8999 291.2001 13.29325432 24968

Traccia HULIANWANG DIGUI-157 in tempo reale con AllMySat

Download on the App Store